Sevilla, Spain

2:48 AM CEST on May 23, 2017 (GMT +0200)
San Pablo

Weather History for LEZL - December, 2012

Change the Weather History Date:

Thursday, December 27, 2012

  Actual Average Record
Temperature  
Mean Temperature 50 °F -  
Max Temperature 60 °F 59 °F 70 °F (2015)
Min Temperature 41 °F 41 °F 33 °F (1998)
Degree Days  
Heating Degree Days 14    
Moisture  
Dew Point 42 °F    
Average Humidity 78    
Maximum Humidity 100    
Minimum Humidity 45    
Precipitation  
Precipitation 0.00 in - - ()
Sea Level Pressure  
Sea Level Pressure 30.47 in    
Wind  
Wind Speed 4 mph ()    
Max Wind Speed 9 mph    
Max Gust Speed -    
Averages and records for this station are not official NWS values.
T = Trace of Precipitation, MM = Missing Value Source: Averaged Metar Reports

Daily Weather History Graph

Daily Weather History Graph

Search for Another Location

Airport or City:

Trip Planner

Search our weather history database for the weather conditions in past years. The results will help you decide how hot, cold, wet, or windy it might be!

Date:

Astronomy

Dec. 27, 2012 Rise Set
Actual Time 8:36 AM CET 6:12 PM CET
Civil Twilight 8:07 AM CET 6:42 PM CET
Nautical Twilight 7:34 AM CET 7:14 PM CET
Astronomical Twilight 7:03 AM CET 7:46 PM CET
Moon 5:43 PM CET (12/27) 7:37 AM CET (12/27)
Length of Visible Light 10h 34m
Length of Day
9h 35m
Waxing Gibbous, 99% of the Moon is Illuminated
Dec 27
Waxing Gibbous
Dec 28
Full
Jan 5
Last Quarter
Jan 11
New
Jan 19
First Quarter

Hourly Weather History & Observations

Time (CET) Temp. Windchill Dew Point Humidity Pressure Visibility Wind Dir Wind Speed Gust Speed Precip Events Conditions
12:00 AM 44.6 °F - 42.8 °F 93% 30.45 in - Calm Calm - N/A   Clear
12:30 AM 44.6 °F - 42.8 °F 93% 30.45 in - NE 1.2 mph - N/A   Clear
1:00 AM 44.6 °F 40.7 °F 42.8 °F 93% 30.45 in - NE 6.9 mph - N/A   Clear
4:30 AM 42.8 °F - 41.0 °F 93% 30.45 in - NNE 1.2 mph - N/A   Clear
5:00 AM 41.0 °F - 37.4 °F 87% 30.45 in - Variable 1.2 mph - N/A   Clear
5:30 AM 42.8 °F - 41.0 °F 93% 30.45 in - Calm Calm - N/A   Clear
6:00 AM 41.0 °F - 39.2 °F 93% 30.45 in - Variable 1.2 mph - N/A   Clear
6:30 AM 41.0 °F 36.4 °F 39.2 °F 93% 30.45 in - NNE 6.9 mph - N/A   Clear
7:00 AM 41.0 °F 38.0 °F 39.2 °F 93% 30.45 in - NNE 4.6 mph - N/A   Clear
7:30 AM 42.8 °F 40.1 °F 41.0 °F 93% 30.48 in - NE 4.6 mph - N/A   Clear
8:00 AM 41.0 °F 37.1 °F 41.0 °F 100% 30.48 in - NE 5.8 mph - N/A   Clear
8:30 AM 42.8 °F 39.3 °F 41.0 °F 93% 30.48 in - NE 5.8 mph - N/A   Clear
9:00 AM 41.0 °F 35.8 °F 39.2 °F 93% 30.48 in - NNE 8.1 mph - N/A   Clear
9:30 AM 44.6 °F 41.4 °F 41.0 °F 87% 30.51 in - NE 5.8 mph - N/A   Clear
10:00 AM 44.6 °F 40.7 °F 42.8 °F 93% 30.51 in - NE 6.9 mph - N/A   Clear
10:30 AM 46.4 °F 42.9 °F 42.8 °F 87% 30.51 in - NE 6.9 mph - N/A   Clear
11:00 AM 48.2 °F - 42.8 °F 82% 30.54 in - NE 6.9 mph - N/A   Clear
11:30 AM 50.0 °F - 44.6 °F 82% 30.54 in - NE 8.1 mph - N/A   Clear
12:00 PM 51.8 °F - 44.6 °F 76% 30.51 in - NE 9.2 mph - N/A   Clear
12:30 PM 53.6 °F - 44.6 °F 72% 30.51 in - NE 8.1 mph - N/A   Clear
1:30 PM 57.2 °F - 46.4 °F 67% 30.51 in - NE 6.9 mph - N/A   Clear
2:00 PM 57.2 °F - 44.6 °F 63% 30.48 in - ENE 5.8 mph - N/A   Clear
2:30 PM 59.0 °F - 44.6 °F 59% 30.48 in - NE 6.9 mph - N/A   Clear
3:00 PM 59.0 °F - 42.8 °F 55% 30.48 in - East 4.6 mph - N/A   Clear
3:30 PM 59.0 °F - 41.0 °F 51% 30.45 in - NE 3.5 mph - N/A   Clear
4:00 PM 60.8 °F - 39.2 °F 45% 30.45 in - NE 5.8 mph - N/A   Clear
4:30 PM 60.8 °F - 39.2 °F 45% 30.45 in - ENE 5.8 mph - N/A   Clear
5:00 PM 59.0 °F - 41.0 °F 51% 30.45 in - ENE 6.9 mph - N/A   Clear
5:30 PM 59.0 °F - 41.0 °F 51% 30.45 in - ENE 5.8 mph - N/A   Clear
6:00 PM 57.2 °F - 41.0 °F 55% 30.45 in - NE 1.2 mph - N/A   Clear
6:30 PM 55.4 °F - 41.0 °F 58% 30.45 in - NE 2.3 mph - N/A   Clear
7:00 PM 51.8 °F - 42.8 °F 71% 30.45 in - NE 2.3 mph - N/A   Clear
7:30 PM 50.0 °F - 42.8 °F 76% 30.45 in - NNE 1.2 mph - N/A   Clear
8:00 PM 48.2 °F - 42.8 °F 82% 30.45 in - NE 1.2 mph - N/A   Clear
8:30 PM 48.2 °F - 42.8 °F 82% 30.45 in - NE 2.3 mph - N/A   Clear
9:00 PM 46.4 °F - 41.0 °F 81% 30.45 in - Calm Calm - N/A   Clear
9:30 PM 44.6 °F 42.2 °F 41.0 °F 87% 30.48 in - NNE 4.6 mph - N/A   Clear
10:00 PM 46.4 °F 42.4 °F 42.8 °F 87% 30.48 in - NNE 8.1 mph - N/A   Clear
10:30 PM 44.6 °F 43.1 °F 41.0 °F 87% 30.48 in - NE 3.5 mph - N/A   Clear
11:00 PM 46.4 °F 42.9 °F 42.8 °F 87% 30.48 in - NE 6.9 mph - N/A   Clear
11:30 PM 46.4 °F 44.3 °F 42.8 °F 87% 30.51 in - NE 4.6 mph - N/A   Clear